Location: Aumessas
(43.9905°N, 3.5059°E)
Time: 17:59:10
(UTC+00:00)

Daily predictions for brighter satellites

Satellite Brightness Start Highest point End
(mag) Time Altitude Azimuth Time Altitude Azimuth Time Altitude Azimuth
Meteor 1-16 Rocket 4.3 17:17:46 10° S 17:23:07 51° E 17:28:21 10° NNE
Cosmos 2285 Rocket 4.3 17:17:14 10° NNW 17:23:42 81° WSW 17:30:05 10° SSE
NOAA 12 4.1 17:19:43 10° SSE 17:24:57 68° ENE 17:30:14 10° N
Cosmos 921 Rocket 3.1 17:21:51 10° S 17:26:20 70° ESE 17:30:47 10° NNE
ATLAS 5 CENTAUR R/B 3.1 17:22:42 10° WSW 17:26:38 34° NW 17:31:02 10° NNE
Cosmos 1908 4.3 17:23:51 10° SE 17:27:05 25° E 17:30:20 10° NNE
Cosmos 2278 Rocket 2.9 17:25:07 10° SSE 17:30:07 33° ESE 17:35:09 10° NE
Cosmos 1242 Rocket 2.7 17:31:04 10° N 17:34:41 51° ENE 17:38:16 10° SSE
Cosmos 1844 4.1 17:30:14 10° SSW 17:35:56 72° WNW 17:41:44 10° NNE
Cosmos 1777 Rocket 4.4 17:32:18 10° N 17:37:16 42° ENE 17:42:10 10° SE
Cosmos 2058 Rocket 3.0 17:36:09 10° S 17:40:26 62° E 17:44:45 10° NNE
Cosmos 839 Rocket 4.1 17:35:54 10° NNW 17:42:07 71° NE 17:49:12 10° SE
Cosmos 1726 2.0 17:41:29 10° S 17:45:06 63° E 17:48:43 10° NNE
USA 116 4.1 17:43:14 10° NE 17:46:07 30° E 17:49:12 10° SSE
Lacrosse 5 rocket 3.2 17:44:21 10° WNW 17:47:39 29° SW 17:51:06 10° S
CSL-04 Rocket 3.9 17:43:06 10° SE 17:48:27 53° ENE 17:53:46 10° N
Okean-O 3.5 17:48:43 10° S 17:53:03 54° W 17:57:25 10° NNW
Cosmos 292 Rocket 3.7 17:50:12 10° SSW 17:54:56 87° ESE 17:59:43 10° NNE
Cosmos 1939 Rocket 3.8 17:53:21 10° SE 17:56:44 27° ENE 18:00:12 10° N
Cosmos 1328 3.7 17:52:55 10° N 17:56:56 82° E 18:00:52 10° S
COSMO-SKYMED 1 2.5 17:52:52 10° NNE 17:57:15 80° ESE 18:01:35 10° S
H-2A R/B 3.8 18:04:36 14° ENE 18:04:50 14° ENE 18:07:33 10° NNE
ASTEX 1 3.5 18:00:13 10° N 18:05:12 83° W 18:10:10 10° S
Cosmos 1605 Rocket 3.9 17:59:10 10° N 18:05:20 68° E 18:11:24 10° SSE
Cosmos 1833 Rocket 2.8 18:02:25 10° NNW 18:07:56 53° ENE 18:13:24 10° SE
Cosmos 1461 3.2 18:04:43 10° NNW 18:08:39 43° NE 18:11:01 22° ESE
Unknown 4.1 18:07:48 10° NW 18:10:55 31° NNE 18:12:01 25° ENE
Meteor 2-10 4.1 18:06:39 10° SSW 18:11:43 76° W 18:16:46 10° N
Cosmos 1934 Rocket 4.3 18:05:48 10° NNW 18:12:08 73° W 18:18:27 10° S
FALCON 9 DEB 4.3 18:09:43 10° NW 18:12:51 30° NNE 18:13:56 25° NE
Envisat 3.6 18:07:52 10° S 18:12:52 59° W 18:17:54 10° NNW
Cosmos 1727 Rocket 4.1 18:08:42 10° SSE 18:14:39 52° E 18:20:36 10° NNE
ATLAS 3B R/B 3.7 18:11:44 10° SSE 18:16:29 21° ESE 18:16:54 21° ESE
CZ-2D R/B 3.4 18:13:31 10° SSE 18:17:14 50° ENE 18:21:00 10° N
Unknown 4.4 18:15:26 10° WNW 18:17:44 27° SW 18:19:34 13° SSE
YAOGAN 6 3.1 18:14:52 10° S 18:18:29 62° W 18:22:07 10° NNW
CZ-4 R/B 2.2 18:19:30 10° S 18:23:35 57° W 18:27:46 10° NNW
Cosmos 1300 3.2 18:20:16 10° SSE 18:23:46 36° E 18:24:44 31° ENE
Unknown 4.2 18:20:46 10° NW 18:23:57 31° NNE 18:24:33 29° NE
Cosmos 2173 Rocket 4.5 18:18:30 10° N 18:24:16 37° ENE 18:28:10 18° SE
CENTAUR R/B 3.4 18:21:54 10° SSE 18:26:01 23° ESE 18:26:01 23° ESE
Lacrosse 5 2.1 18:23:01 10° NW 18:27:58 50° NE 18:29:56 32° E
Abrixas rocket 2.1 18:26:52 10° WSW 18:29:55 68° NNW 18:30:25 53° NE
Falcon 9 debris 3.8 18:26:51 10° NW 18:30:07 39° NNE 18:30:26 38° NE
Cosmos 2082 Rocket 2.2 18:28:48 10° NNW 18:34:28 60° ENE 18:37:44 25° SE
DMSP B5D1-3 4.4 18:30:19 10° NNE 18:35:29 80° ESE 18:40:37 10° S
BREEZE M DEB (TANK) 2.4 18:33:36 10° WNW 18:36:13 75° SSW 18:38:41 29° SE
Cosmos 1812 Rocket 3.4 18:32:16 10° S 18:36:39 73° E 18:41:07 10° NNE
Cosmos 1076 Rocket 3.5 18:33:32 10° N 18:37:51 58° E 18:39:44 31° SE
Cosmos 967 Rocket 4.5 18:33:05 10° NNW 18:39:31 66° NE 18:43:04 28° SE
USA 238 DEB 3.6 18:38:11 10° SSW 18:44:51 80° SE 18:51:07 13° NE
USA 238 3.6 18:38:18 10° SSW 18:44:58 80° SE 18:51:10 13° NE
Unknown 3.6 18:43:03 10° WNW 18:46:05 46° SW 18:46:15 46° SSW
Unknown 3.9 18:42:59 10° NW 18:46:02 42° N 18:46:02 42° N
YAOGAN 1 3.8 18:42:19 10° S 18:46:26 43° W 18:50:34 10° NNW
Cosmos 2100 Rocket 3.9 18:42:25 10° N 18:48:34 60° E 18:53:06 18° SSE
Gbstr 26 Del rocket 4.1 18:46:03 10° WNW 18:52:20 88° NNE 18:55:35 36° ESE
Ariane Rocket 3.0 18:50:19 10° SSE 18:55:25 84° WSW 19:00:34 10° NNW
Shenzhou-11 Module 4.1 18:57:03 10° W 18:58:27 24° WSW 18:58:27 24° WSW
In-Cosmos 22 Rocket 4.1 18:54:58 10° N 19:00:20 61° ENE 19:01:10 54° ESE
SJ-11-01 4.3 19:04:36 62° NE 19:04:36 62° NE 19:08:52 10° N
Cosmos 2058 3.1 19:01:41 10° N 19:05:13 61° N 19:05:13 61° N
Cosmos 2016 Rocket 4.0 19:02:29 10° N 19:08:40 55° ENE 19:09:06 54° E
NOSS 3-2 (A) 3.3 19:03:34 10° SW 19:09:19 85° NW 19:13:02 27° NE
Cosmos 2278 Rocket 3.5 19:08:47 10° SW 19:14:05 40° WNW 19:19:26 10° NNE
Cosmos 2297 3.5 19:09:40 10° SSW 19:15:20 74° ESE 19:15:56 67° ENE
Cosmos 1937 Rocket 4.4 19:10:36 10° N 19:13:53 33° NNE 19:13:53 33° NNE
NOSS 3-3 (A) 4.5 19:10:38 10° NW 19:18:14 87° SW 19:21:38 40° SSE
NOSS 3-3 (C) 4.5 19:10:43 10° NW 19:18:19 88° SW 19:21:41 40° SSE
Cosmos 990 Rocket 4.4 19:14:14 10° NNW 19:18:18 49° NNE 19:18:18 49° NNE
MOS 1 4.4 19:24:06 37° S 19:26:24 71° WSW 19:32:04 10° NNW
SPOT 3 Rocket 4.0 19:27:56 51° N 19:27:56 51° N 19:31:52 10° N
BREEZE-M DEB (TANK) 3.1 19:20:42 10° WSW 19:28:04 63° WNW 19:28:04 63° WNW
Cosmos 2061 Rocket 3.8 19:27:20 10° N 19:33:38 89° E 19:34:04 79° SSE
NOSS 3-2 (C) 3.3 19:27:58 10° SW 19:33:44 87° NW 19:34:07 80° NNE
SJ 16-02 3.4 19:31:05 10° NNW 19:32:27 19° N 19:32:27 19° N
Cosmos 44 4.5 19:30:42 10° SW 19:33:35 35° SW 19:33:35 35° SW
ARGOS 4.0 19:42:35 42° N 19:42:35 42° N 19:46:06 10° N
H-2A R/B 2.9 19:45:14 44° NNW 19:45:14 44° NNW 19:48:52 10° NNW
Cosmos 1459 Rocket 4.5 19:37:46 10° NNW 19:43:52 57° W 19:47:27 25° SSW
ADEOS Rocket 3.3 19:36:50 10° NNE 19:44:35 84° ESE 19:51:42 10° SSW
ATLAS 3B R/B 3.3 19:59:41 10° SW 20:04:16 46° SW 20:04:16 46° SW
Lacrosse 5 3.7 20:06:16 10° WNW 20:09:09 27° W 20:09:09 27° W
H-2A R/B 4.4 19:31:17 10° WSW 20:11:56 47° S 20:13:11 46° S
CENTAUR R/B 3.7 20:10:21 10° SW 20:13:19 32° WSW 20:13:19 32° WSW
Cosmos 2082 Rocket 4.3 20:13:53 10° NW 20:18:02 21° W 20:19:38 19° WSW
